TimeCST,TemperatureF,Dew PointF,Humidity,Sea Level PressureIn,VisibilityMPH,Wind Direction,Wind SpeedMPH,Gust SpeedMPH,PrecipitationIn,Events,Conditions,WindDirDegrees,DateUTC
12:15 AM,44.6,15.8,31,30.06,10.0,NNE,3.5,-,N/A,,Clear,30,2011-11-20 06:15:00
12:35 AM,44.6,15.8,31,30.06,10.0,North,4.6,-,N/A,,Clear,360,2011-11-20 06:35:00
12:55 AM,44.6,17.6,34,30.06,10.0,NNW,4.6,-,N/A,,Clear,330,2011-11-20 06:55:00
1:15 AM,42.8,17.6,36,30.06,10.0,North,6.9,-,N/A,,Clear,10,2011-11-20 07:15:00
1:35 AM,44.6,15.8,31,30.06,10.0,NNE,8.1,-,N/A,,Clear,20,2011-11-20 07:35:00
1:55 AM,44.6,15.8,31,30.06,10.0,NNW,6.9,-,N/A,,Clear,340,2011-11-20 07:55:00
2:15 AM,44.6,17.6,34,30.06,10.0,NNW,10.4,-,N/A,,Clear,330,2011-11-20 08:15:00
2:35 AM,44.6,17.6,34,30.06,10.0,NNW,6.9,-,N/A,,Clear,340,2011-11-20 08:35:00
2:55 AM,44.6,17.6,34,30.07,10.0,NNW,8.1,-,N/A,,Clear,330,2011-11-20 08:55:00
3:15 AM,42.8,15.8,34,30.07,10.0,North,4.6,-,N/A,,Clear,360,2011-11-20 09:15:00
3:35 AM,41.0,15.8,36,30.06,10.0,NNE,6.9,-,N/A,,Clear,20,2011-11-20 09:35:00
3:55 AM,41.0,14.0,33,30.06,10.0,NNE,4.6,-,N/A,,Clear,30,2011-11-20 09:55:00
4:15 AM,39.2,15.8,39,30.06,10.0,NNE,8.1,-,N/A,,Clear,30,2011-11-20 10:15:00
4:35 AM,41.0,15.8,36,30.07,10.0,North,3.5,-,N/A,,Clear,350,2011-11-20 10:35:00
4:55 AM,41.0,15.8,36,30.07,10.0,NNW,5.8,-,N/A,,Clear,330,2011-11-20 10:55:00
5:35 AM,41.0,15.8,36,30.08,10.0,North,3.5,-,N/A,,Clear,350,2011-11-20 11:35:00
5:55 AM,39.2,15.8,39,30.09,10.0,NNE,3.5,-,N/A,,Clear,20,2011-11-20 11:55:00
6:55 AM,39.2,15.8,39,30.11,10.0,North,3.5,-,N/A,,Clear,350,2011-11-20 12:55:00
7:15 AM,41.0,15.8,36,30.12,10.0,NNW,4.6,-,N/A,,Clear,340,2011-11-20 13:15:00
7:35 AM,42.8,17.6,36,30.12,10.0,North,3.5,-,N/A,,Clear,350,2011-11-20 13:35:00
7:55 AM,42.8,17.6,36,30.13,10.0,North,5.8,-,N/A,,Clear,10,2011-11-20 13:55:00
8:15 AM,44.6,17.6,34,30.13,10.0,NNE,4.6,-,N/A,,Clear,20,2011-11-20 14:15:00
8:35 AM,46.4,19.4,34,30.14,10.0,NNW,4.6,-,N/A,,Clear,340,2011-11-20 14:35:00
8:55 AM,48.2,19.4,32,30.15,10.0,NNW,4.6,-,N/A,,Clear,340,2011-11-20 14:55:00
9:15 AM,51.8,21.2,30,30.16,10.0,NNW,4.6,-,N/A,,Clear,330,2011-11-20 15:15:00
9:35 AM,53.6,21.2,28,30.17,8.0,NW,4.6,-,N/A,,Clear,320,2011-11-20 15:35:00
9:55 AM,55.4,21.2,26,30.18,9.0,Calm,Calm,-,N/A,,Clear,0,2011-11-20 15:55:00
10:15 AM,59.0,21.2,23,30.18,10.0,SSE,3.5,-,N/A,,Clear,150,2011-11-20 16:15:00
10:35 AM,60.8,21.2,22,30.18,10.0,South,5.8,-,N/A,,Clear,170,2011-11-20 16:35:00
10:55 AM,62.6,21.2,20,30.18,10.0,South,8.1,-,N/A,,Clear,180,2011-11-20 16:55:00
11:15 AM,64.4,23.0,21,30.17,10.0,South,6.9,-,N/A,,Clear,180,2011-11-20 17:15:00
11:35 AM,64.4,23.0,21,30.16,10.0,South,12.7,-,N/A,,Clear,180,2011-11-20 17:35:00
12:15 PM,69.8,28.4,21,30.15,10.0,South,13.8,-,N/A,,Clear,190,2011-11-20 18:15:00
12:55 PM,71.6,30.2,22,30.13,10.0,South,13.8,-,N/A,,Clear,180,2011-11-20 18:55:00
1:15 PM,71.6,30.2,22,30.12,10.0,South,11.5,-,N/A,,Clear,180,2011-11-20 19:15:00
1:35 PM,71.6,28.4,20,30.11,10.0,SSW,15.0,20.7,N/A,,Clear,200,2011-11-20 19:35:00
1:55 PM,71.6,28.4,20,30.11,10.0,SSW,17.3,-,N/A,,Clear,210,2011-11-20 19:55:00
2:15 PM,71.6,33.8,25,30.10,10.0,SSW,16.1,23.0,N/A,,Clear,210,2011-11-20 20:15:00
2:35 PM,71.6,32.0,23,30.10,10.0,South,12.7,-,N/A,,Clear,190,2011-11-20 20:35:00
2:55 PM,71.6,30.2,22,30.10,10.0,South,11.5,19.6,N/A,,Clear,190,2011-11-20 20:55:00
3:15 PM,71.6,30.2,22,30.10,10.0,South,10.4,-,N/A,,Clear,190,2011-11-20 21:15:00
3:35 PM,71.6,30.2,22,30.10,10.0,South,11.5,-,N/A,,Clear,190,2011-11-20 21:35:00
3:55 PM,69.8,30.2,23,30.10,10.0,South,13.8,20.7,N/A,,Clear,190,2011-11-20 21:55:00
4:15 PM,69.8,30.2,23,30.10,10.0,South,15.0,-,N/A,,Clear,170,2011-11-20 22:15:00
4:35 PM,69.8,30.2,23,30.10,10.0,South,11.5,-,N/A,,Clear,170,2011-11-20 22:35:00
5:15 PM,66.2,28.4,24,30.11,10.0,South,11.5,-,N/A,,Clear,190,2011-11-20 23:15:00
5:35 PM,64.4,28.4,26,30.12,10.0,South,8.1,-,N/A,,Clear,190,2011-11-20 23:35:00
6:15 PM,60.8,28.4,29,30.13,10.0,SSW,4.6,-,N/A,,Clear,200,2011-11-21 00:15:00
6:35 PM,60.8,28.4,29,30.13,10.0,SSW,3.5,-,N/A,,Clear,210,2011-11-21 00:35:00
6:55 PM,53.6,24.8,33,30.14,10.0,Calm,Calm,-,N/A,,Clear,0,2011-11-21 00:55:00
7:55 PM,51.8,24.8,35,30.14,10.0,NW,12.7,-,N/A,,Clear,320,2011-11-21 01:55:00
8:15 PM,55.4,26.6,33,30.15,10.0,Calm,Calm,-,N/A,,Clear,0,2011-11-21 02:15:00
8:35 PM,53.6,24.8,33,30.15,10.0,North,3.5,-,N/A,,Clear,350,2011-11-21 02:35:00
8:55 PM,50.0,24.8,37,30.16,10.0,NE,5.8,-,N/A,,Clear,50,2011-11-21 02:55:00
9:15 PM,48.2,24.8,40,30.15,10.0,NE,3.5,-,N/A,,Clear,40,2011-11-21 03:15:00
9:35 PM,48.2,23.0,37,30.16,10.0,NNE,6.9,-,N/A,,Clear,20,2011-11-21 03:35:00
9:55 PM,51.8,24.8,35,30.15,10.0,North,8.1,-,N/A,,Clear,350,2011-11-21 03:55:00
10:15 PM,50.0,24.8,37,30.15,10.0,North,9.2,-,N/A,,Clear,350,2011-11-21 04:15:00
10:35 PM,50.0,24.8,37,30.14,10.0,North,9.2,-,N/A,,Clear,350,2011-11-21 04:35:00
10:55 PM,48.2,23.0,37,30.14,10.0,NNE,4.6,-,N/A,,Clear,30,2011-11-21 04:55:00
11:15 PM,48.2,23.0,37,30.14,10.0,NW,5.8,-,N/A,,Clear,320,2011-11-21 05:15:00
11:35 PM,46.4,23.0,40,30.14,10.0,North,4.6,-,N/A,,Clear,350,2011-11-21 05:35:00
11:55 PM,44.6,23.0,43,30.14,10.0,Calm,Calm,-,N/A,,Clear,0,2011-11-21 05:55:00